Chandler, OK

7:39 PM CDT on July 26, 2017 (GMT -0500)
Chandler Municipal

Weather History for KCQB - September, 2013

Change the Weather History Date:

Saturday, September 28, 2013

  Actual Average (KCUH) Record (KCUH)
Temperature  
Mean Temperature 68 °F -  
Max Temperature 78 °F 79 °F 108 °F (1953)
Min Temperature 59 °F 56 °F 36 °F (1967)
Cooling Degree Days 4    
Growing Degree Days 18 (Base 50)    
Moisture  
Dew Point 64 °F    
Average Humidity 82    
Maximum Humidity 100    
Minimum Humidity 64    
Precipitation  
Precipitation 0.00 in - - ()
Sea Level Pressure  
Sea Level Pressure 29.97 in    
Wind  
Wind Speed 10 mph (North)    
Max Wind Speed 17 mph    
Max Gust Speed 24 mph    
Visibility 10 miles    
Events Rain    
Averages and records for this station are not official NWS values.
T = Trace of Precipitation, MM = Missing Value Source: NWS Daily Summary

Daily Weather History Graph

Daily Weather History Graph

Search for Another Location

Airport or City:

Trip Planner

Search our weather history database for the weather conditions in past years. The results will help you decide how hot, cold, wet, or windy it might be!

Date:

Astronomy

Sep. 28, 2013 Rise Set
Actual Time 7:20 AM CDT 7:14 PM CDT
Civil Twilight 6:54 AM CDT 7:40 PM CDT
Nautical Twilight 6:24 AM CDT 8:09 PM CDT
Astronomical Twilight 5:55 AM CDT 8:39 PM CDT
Moon 1:18 AM CDT (9/28) 3:25 PM CDT (9/28)
Length of Visible Light 12h 45m
Length of Day
11h 54m
Waning Crescent, 36% of the Moon is Illuminated
Sep 28
Waning Crescent
Oct 4
New
Oct 11
First Quarter
Oct 18
Full
Oct 26
Last Quarter

Hourly Weather History & Observations

Time (CDT) Temp. Dew Point Humidity Pressure Visibility Wind Dir Wind Speed Gust Speed Precip Events Conditions
12:15 AM 78.8 °F 68.0 °F 69% 29.85 in 10.0 mi South 11.5 mph 17.3 mph N/A   Scattered Clouds
12:35 AM 78.8 °F 68.0 °F 69% 29.85 in 10.0 mi South 10.4 mph - N/A   Scattered Clouds
12:55 AM 78.8 °F 68.0 °F 69% 29.86 in 10.0 mi South 8.1 mph - N/A   Clear
1:15 AM 77.0 °F 68.0 °F 74% 29.86 in 10.0 mi South 8.1 mph - N/A   Clear
1:35 AM 78.8 °F 68.0 °F 69% 29.86 in 10.0 mi South 9.2 mph - N/A   Scattered Clouds
1:55 AM 78.8 °F 68.0 °F 69% 29.85 in 10.0 mi South 10.4 mph 16.1 mph N/A   Scattered Clouds
2:15 AM 78.8 °F 68.0 °F 69% 29.86 in 7.0 mi South 10.4 mph - N/A   Scattered Clouds
2:35 AM 78.8 °F 68.0 °F 69% 29.85 in 10.0 mi South 10.4 mph - N/A   Mostly Cloudy
2:55 AM 77.0 °F 68.0 °F 74% 29.84 in 10.0 mi South 11.5 mph 19.6 mph N/A   Clear
3:15 AM 77.0 °F 68.0 °F 74% 29.84 in 10.0 mi South 12.7 mph 17.3 mph N/A   Clear
3:35 AM 77.0 °F 69.8 °F 78% 29.84 in 10.0 mi South 11.5 mph 19.6 mph N/A   Clear
3:55 AM 77.0 °F 69.8 °F 78% 29.85 in 10.0 mi South 11.5 mph 19.6 mph N/A   Scattered Clouds
4:15 AM 77.0 °F 69.8 °F 78% 29.85 in 10.0 mi South 10.4 mph 18.4 mph N/A   Scattered Clouds
4:35 AM 77.0 °F 69.8 °F 78% 29.85 in 10.0 mi South 10.4 mph 16.1 mph N/A   Clear
4:55 AM 77.0 °F 69.8 °F 78% 29.85 in 10.0 mi South 10.4 mph 17.3 mph N/A   Mostly Cloudy
5:15 AM 77.0 °F 69.8 °F 78% 29.85 in 10.0 mi South 10.4 mph - N/A   Overcast
5:35 AM 77.0 °F 69.8 °F 78% 29.85 in 10.0 mi South 12.7 mph 19.6 mph N/A   Overcast
5:55 AM 77.0 °F 71.6 °F 83% 29.85 in 10.0 mi South 12.7 mph 18.4 mph N/A   Overcast
6:15 AM 77.0 °F 71.6 °F 83% 29.86 in 10.0 mi South 12.7 mph 21.9 mph N/A   Mostly Cloudy
6:35 AM 77.0 °F 71.6 °F 83% 29.86 in 10.0 mi South 12.7 mph 18.4 mph N/A   Mostly Cloudy
6:55 AM 77.0 °F 71.6 °F 83% 29.86 in 10.0 mi South 11.5 mph - N/A   Mostly Cloudy
7:15 AM 77.0 °F 71.6 °F 83% 29.87 in 10.0 mi South 12.7 mph 18.4 mph N/A   Overcast
7:35 AM 77.0 °F 71.6 °F 83% 29.87 in 10.0 mi South 11.5 mph 18.4 mph N/A   Mostly Cloudy
7:55 AM 77.0 °F 71.6 °F 83% 29.88 in 10.0 mi South 15.0 mph 18.4 mph N/A   Overcast
8:15 AM 78.8 °F 71.6 °F 78% 29.92 in 10.0 mi WNW 13.8 mph 19.6 mph N/A   Overcast
8:35 AM 71.6 °F 69.8 °F 94% 29.92 in 10.0 mi NNW 13.8 mph 19.6 mph N/A   Overcast
8:55 AM 69.8 °F 69.8 °F 100% 29.96 in 4.0 mi NNW 10.4 mph 24.2 mph N/A Rain Heavy Rain
9:15 AM 69.8 °F 69.8 °F 100% 29.95 in 2.0 mi North 8.1 mph - N/A Rain Heavy Rain
9:35 AM 69.8 °F 69.8 °F 100% - - North - - N/A   Unknown
9:55 AM - - N/A% - - North - - N/A   Unknown
10:15 AM - - N/A% - - North - - N/A   Unknown
10:35 AM - - N/A% - - North - - N/A   Unknown
10:55 AM 62.6 °F 62.6 °F 100% 30.00 in - North 9.2 mph - N/A   Unknown
11:55 AM 60.8 °F 60.8 °F 100% 30.04 in 10.0 mi NNW 9.2 mph - N/A Rain Light Rain
12:15 PM 60.8 °F 60.8 °F 100% 30.02 in 10.0 mi North 10.4 mph 16.1 mph N/A Rain Light Rain
12:35 PM 60.8 °F 60.8 °F 100% 30.03 in 10.0 mi North 11.5 mph 18.4 mph N/A Rain Light Rain
12:55 PM 60.8 °F 60.8 °F 100% 30.02 in 10.0 mi North 12.7 mph - N/A Rain Light Rain
1:15 PM 60.8 °F 60.8 °F 100% 30.03 in 10.0 mi North 17.3 mph 20.7 mph N/A Rain Light Rain
1:35 PM 60.8 °F 60.8 °F 100% 30.03 in 10.0 mi North 10.4 mph 19.6 mph N/A Rain Light Rain
1:55 PM 62.6 °F 60.8 °F 94% 30.03 in 10.0 mi North 13.8 mph 20.7 mph N/A   Overcast
2:15 PM 62.6 °F 60.8 °F 94% 30.02 in 10.0 mi North 9.2 mph - N/A   Overcast
2:35 PM 64.4 °F 62.6 °F 94% 30.02 in 10.0 mi North 12.7 mph - N/A   Overcast
2:55 PM 64.4 °F 60.8 °F 88% 30.02 in 10.0 mi North 10.4 mph 20.7 mph N/A   Overcast
3:15 PM 68.0 °F 62.6 °F 83% 30.02 in 10.0 mi North 8.1 mph - N/A   Overcast
3:35 PM 69.8 °F 62.6 °F 78% 30.02 in 10.0 mi NNE 11.5 mph - N/A   Scattered Clouds
3:55 PM 69.8 °F 60.8 °F 73% 30.02 in 10.0 mi North 10.4 mph - N/A   Clear
4:15 PM 69.8 °F 59.0 °F 68% 30.01 in 10.0 mi North 13.8 mph - N/A   Clear
4:35 PM 69.8 °F 59.0 °F 68% 30.02 in 10.0 mi North 11.5 mph 17.3 mph N/A   Clear
4:55 PM 69.8 °F 60.8 °F 73% 30.02 in 10.0 mi North 9.2 mph - N/A   Clear
5:15 PM 71.6 °F 59.0 °F 64% 30.02 in 10.0 mi North 10.4 mph - N/A   Clear
5:35 PM 71.6 °F 59.0 °F 64% 30.02 in 10.0 mi North 10.4 mph - N/A   Clear
5:55 PM 69.8 °F 59.0 °F 68% 30.03 in 10.0 mi North 8.1 mph - N/A   Clear
6:15 PM 69.8 °F 59.0 °F 68% 30.04 in 10.0 mi North 6.9 mph - N/A   Clear
6:35 PM 69.8 °F 59.0 °F 68% 30.04 in 10.0 mi North 5.8 mph - N/A   Clear
6:55 PM 68.0 °F 59.0 °F 73% 30.04 in 10.0 mi Calm Calm - N/A   Clear
7:15 PM 68.0 °F 60.8 °F 78% 30.04 in 10.0 mi NNE 3.5 mph - N/A   Clear
7:35 PM 66.2 °F 59.0 °F 78% 30.05 in 10.0 mi Calm Calm - N/A   Clear
7:55 PM 64.4 °F 59.0 °F 83% 30.05 in 10.0 mi Calm Calm - N/A   Clear
8:15 PM 64.4 °F 59.0 °F 83% 30.06 in 10.0 mi NNE 3.5 mph - N/A   Clear
8:35 PM 64.4 °F 59.0 °F 83% 30.07 in 10.0 mi Calm Calm - N/A   Clear
8:55 PM 62.6 °F 59.0 °F 88% 30.07 in 10.0 mi NNW 4.6 mph - N/A   Clear
9:15 PM 60.8 °F 59.0 °F 94% 30.08 in 10.0 mi North 5.8 mph - N/A   Clear
9:35 PM 60.8 °F 57.2 °F 88% 30.09 in 10.0 mi North 3.5 mph - N/A   Clear
9:55 PM 60.8 °F 57.2 °F 88% 30.10 in 10.0 mi North 4.6 mph - N/A   Clear
10:15 PM 60.8 °F 55.4 °F 82% 30.10 in 10.0 mi North 4.6 mph - N/A   Clear
10:35 PM 60.8 °F 55.4 °F 82% 30.11 in 10.0 mi North 3.5 mph - N/A   Clear
10:55 PM 59.0 °F 55.4 °F 88% 30.12 in 10.0 mi NNW 4.6 mph - N/A   Clear
11:15 PM 60.8 °F 55.4 °F 82% 30.12 in 10.0 mi NNW 4.6 mph - N/A   Clear
11:35 PM 59.0 °F 55.4 °F 88% 30.12 in 10.0 mi Calm Calm - N/A   Clear
11:55 PM 59.0 °F 55.4 °F 88% 30.12 in 10.0 mi North 4.6 mph - N/A   Clear